Погода в Кунграде

Погода в Кунграде : погода сейчас, прогноз погоды и архив. Всё, что Вы хотите узнать о погоде в Кунграде!

Хотите узнать прогноз погоды в Кунграде? Тогда Вам сюда: Погода в Кунграде

Поиск расширенной информации на нашем сайте:

Другие новости

Новости СМИ2

Главная страница сайта

Новости сайта

03.07.2017

Напоминаем, что на нашем специализированном сайте Метеоцентр.Азия вы можете получить высокодетализированные автоматические прогнозы погоды по пунктам России, СНГ и мира в авиационном формате (включающие направление и скорость ветра, видимость, явления погоды, количество и форму облачности, нижнюю и верхнюю границу облачности).

Рекомендуем: веник сорго

Погода в Кунграде - сегодня

Время (UTC), дата Ветер
(°,м/с) 
Видим.   Явления Облачность Т
(°С)
Тd
(°С)
f(%) Тe
(°С)
Pmin
(гПа)
dP
(гПа)
Po
(мм)
O2
(г/м3)
Тmin Tmax R s Состояние
почвы
18 17.11.17 300 (СЗ) 20000 м    4/0 верхняя 
[Ci sp]
+3.5 -1.2 71 +4  1023.7  -0.1  762  303    +16.1       
21 17.11.17 320 (СЗ) 20000 м    9/0 средняя, верхняя 
[Ac trans|Ci sp]
+5.5 +2.8 83 +4  1024.4  0.7  762  301           
00 18.11.17 350 (С) 10  20000 м    10/10 600 м 
[Sc]
+2.6 -0.7 79 -2  1027.1  2.7  764  305           
03 18.11.17 360 (С) 20000 м    4/0 средняя 
[Ac trans]
-0.9 -4.1 79 -2  1029.4  2.2  766  310           
06 18.11.17 010 (С) 20000 м    ясно 
+3.4 -2.6 65 +1  1031.6  2.3  768  306  -1.2         
09 18.11.17 050 (СВ) 20000 м    ясно 
+6.7 -4.2 46 +6  1031.4  -0.2  768  302           
12 18.11.17 060 (СВ) 20000 м    ясно 
+7.2 -4.4 43 +7  1032.9  1.6  769  302           
15 18.11.17 070 (В) 20000 м    ясно 
+2.4 -4.7 59 +2  1033.7  0.7  769  308    +8       
18 18.11.17 100 (В) 20000 м    ясно 
+0.7 -5.4 64 -1  1034.6  0.7  770  310    +8       
21 18.11.17 080 (В) 20000 м    ясно 
-1.4 -5 76 -3  1035.3  0.7  770  313           
00 19.11.17 100 (В) 20000 м    ясно 
-2.3 -3.9 89 -5  1035  -0.3  770  313           
03 19.11.17 090 (В) 20000 м    ясно 
-3.3 -5 88 -4  1034.5  -0.6  770  315           
06 19.11.17 120 (ЮВ) 20000 м    3/0 верхняя 
[Ci sp]
+2.1 -3.6 66 -1  1033.6  -0.8  769  308  -3.7         
09 19.11.17 110 (В) 20000 м    3/0 верхняя 
[Ci sp]
+8.1 -3 45 +7  1030.9  -2.3  767  301           
12 19.11.17 090 (В) 20000 м    3/0 верхняя 
[Ci sp]
+7.9 -7.4 33 +6  1030  -0.9  767  301           
15 19.11.17 080 (В) 20000 м    ясно 
+2.1 -6.3 54 +1  1029.5  -0.7  766  307    +9.3       
18 19.11.17 090 (В) 20000 м    ясно 
+0 -6.7 61 -2  1028.7  -0.9  766  309    +9.3       
21 19.11.17 090 (В) 20000 м    ясно 
-1 -7.2 63 -4  1027.8  -0.9  765  310           
00 20.11.17 090 (В) 20000 м    ясно 
-2.5 -8 66 -5  1027.1  -0.7  764  312           
03 20.11.17 100 (В) 20000 м    ясно 
-3.6 -8 71 -8  1026.5  0.7  758  310           
06 20.11.17 100 (В) 20000 м    3/0 верхняя 
[Ci sp]
+2.1 -6 55 +1  1026  -0.2  764  306  -4         
09 20.11.17 080 (В) 20000 м    4/0 верхняя 
[Ci sp]
+9.8 -3.8 38 +9  1024.1  -1.7  762  297           
12 20.11.17 090 (В) 20000 м    6/0 верхняя 
[Ci sp]
+10.4 -3.6 37 +10  1022.9  -1.2  761  296           
15 20.11.17 090 (В) 20000 м    ясно 
+5.2 -3.4 54 +4  1022.6  -0.4  761  301    +11.9       
18 20.11.17 100 (В) 20000 м    ясно 
+2.6 -3.7 63 +1  1021.6  -1  760  304    +11.9       
Время (UTC), дата Ветер
(°,м/с) 
Видим.   Явления Облачность Т
(°С)
Тd
(°С)
f(%) Тe
(°С)
Pmin
(гПа)
dP
(гПа)
Po
(мм)
O2
(г/м3)
Тmin Tmax R s Состояние
почвы

Для получения пояснительной информации подведите курсор к названию столбца.

ПОГОДА в Кунграде - архив

Всё, что Вы хотите узнать о погоде в Кунграде - удобно и подробно!

Выберите нужную дату (начиная с 1 января 2015* года) и нажмите кнопку "Найти".
Будут отображены архивные сводки погоды по пункту Кунград, начиная с указанной даты.


Отображать данные в формате CSV (для использования в таблицах Excel)


Внимание! Наш архив погоды предназначен исключительно для личного некоммерческого использования в познавательных целях. Если Вам необходимы официальные справки о состоянии погоды (для производственных, юридических, коммерческих и т.п. целей), обращайтесь в органы Росгидромета.

*Примечание: данная дата относится к архиву по метеостанциям СССР (Россия, СНГ, Балтия).
Архив по метеостанциям Зарубежной Европы и Азии (кроме Китая) хранится 10 дней, по другим регионам земного шара (Китай, Африка, Америка, Австралия, Океания) - 1 день.

Кунград - район местоположения метеостанции


Название, широта, долгота, высота метеостанции:
Кунград 43.1°ш. 58.9°д. 64 м над ур. моря [Узбекистан]

Дополнительная информация

В oтличие oт бoльшинства пoгoдных сайтoв мы публикуем пoдрoбную метеoинфoрмацию в детальнoм прoфессиoнальнoм фoрмате.

Характеристики температуры и влажнoсти вoздуха измеряются на высoте 2 м в тени вдали oт зданий и деревьев.
Скoрoсть ветра измеряется на высoте 10 м (на урoвне рoста челoвека скoрoсть ветра ниже в 1.5-2 раза). Если метеoстанция нахoдится в гoрoде или в лесу, тo скoрoсть ветра занижена на 2-4 м/с пo сравнению с oткрытым местoм. Скoрoсть ветра над акватoриями крупных рек и oзёр, а также на вершинах хoлмoв на 2-5 м/с выше, чем в oбычных услoвиях.
Атмoсфернoе давление в разных тoчках местнoсти мoжет значительнo oтличаться oт давления на метеoстанции, в зависимoсти oт услoвий рельефа (при пoдъёме на 10 м давление пoнижается примернo на 1 мм рт.ст.).